Regional Weather Roundup
Issued by NWS

Home | Current Version | Previous Version | Graphics & Text | Print | Product List | Glossary On
Versions: 1 2 3 4 5 6 7 8 9 10 11 12 13 14 15 16 17 18 19 20 21 22 23 24 25 26 27 28 29 30 31 32 33 34 35 36 37 38 39 40 41 42 43 44 45 46 47 48 49 50
000
ASUS43 KLMK 042110
RWRKY
KENTUCKY REGIONAL WEATHER ROUNDUP
NATIONAL WEATHER SERVICE LOUISVILLE KY
500 PM EDT TUE AUG 04 2015

NOTE "FAIR" INDICATES FEW OR NO CLOUDS BELOW 12,000 FEET
WITH NO SIGNIFICANT WEATHER AND/OR OBSTRUCTIONS TO VISIBILITY.

KYZ001>023-026-027-061>063-070>075-042200-
WESTERN AND SOUTH CENTRAL KENTUCKY

CITY           SKY/WX    TMP DP  RH WIND       PRES   REMARKS
PADUCAH        MOSUNNY   93  74  53 SW9       29.94F HX 103
HENDERSON      PTSUNNY   73  64  73 SW21G35   29.98R THUNDER
OWENSBORO      MOSUNNY   89  76  65 W6        29.95F HX 100
HOPKINSVILLE   SUNNY     92  71  50 W12       29.96F HX  99
BOWLING GREEN  MOSUNNY   92  68  45 SW9       29.96F HX  96
GLASGOW        NOT AVBL
$$

KYZ024-025-028>034-038-045-046-053-042200-
NORTH CENTRAL KENTUCKY

CITY           SKY/WX    TMP DP  RH WIND       PRES   REMARKS
LOUISVILLE/SDF MOSUNNY   89  68  49 NW12      29.96F HX  93
LOUISVILLE/LOU MOSUNNY   88  66  48 W12       29.97F HX  90
FORT KNOX      SUNNY     85  72  64 NW6       29.96S HX  91
$$

KYZ035>037-039>044-047>052-055>060-089>105-042200-
NORTHEAST KENTUCKY

CITY           SKY/WX    TMP DP  RH WIND       PRES   REMARKS
LEXINGTON      MOSUNNY   84  67  56 W9        29.99F
COVINGTON      CLOUDY    80  64  58 W12       29.98F
FRANKFORT      PTSUNNY   86  68  54 W7        29.97F
$$

KYZ054-064>069-076>088-106>120-042200-
SOUTHEAST KENTUCKY

CITY           SKY/WX    TMP DP  RH WIND       PRES   REMARKS
JACKSON        PTSUNNY   75  69  81 SE3       30.03S
LONDON         TSTM      81  65  58 SW12G29   30.01S
SOMERSET       NOT AVBL
MIDDLESBORO    MOSUNNY   91  70  49 W5        30.00S HX  96
MONTICELLO     PTCLDY    92  73  53 SW9       30.01F HX 100
$$



USA.gov is the U.S. government's official web portal to all federal, state and local government web resources and services.